User: anonymous   Login
Location: Clyde
(45.1830°S, 169.3170°E)
Time: 23:54:57
(UTC+13:00)
Language:

Cosmos 1633 Rocket - Orbit

View from above orbital plane
View from above orbital plane
View from above satellite
View from above satellite

Ground track
Ground track

The orbit data is extracted from the following two-line orbital elements,

1 15593U 85020B   19296.12691866  .00000055  00000-0  36032-5 0  9993
2 15593  82.5398 179.7704 0013201  86.4734 273.7992 14.84367384871636
Epoch (UTC): 23 October 2019 03:02:45
Eccentricity: 0.0013201
inclination: 82.5398°
perigee height: 606 km
apogee height: 625 km
right ascension of ascending node: 179.7704°
argument of perigee: 86.4734°
revolutions per day: 14.84367384
mean anomaly at epoch: 273.7992°
orbit number at epoch: 87163

The dashed part of the orbit path shows where the satellite is in the earth's shadow,  

DLR